User: anonymous   Login
Location: Skalnate Pleso
(49.1889°N, 20.2450°E)
Time: 08:48:01
(UTC+02:00)
Language:

Iridium 45 - Orbit

View from above orbital plane
View from above orbital plane
View from above satellite
View from above satellite

Ground track
Ground track

The orbit data is extracted from the following two-line orbital elements,

1 25104U 97082A   17147.89880065 +.00000081 +00000-0 +21799-4 0  9993
2 25104 086.3936 295.6971 0002508 070.1721 289.9745 14.34215161017203
Epoch (UTC): 27 May 2017 21:34:16
Eccentricity: 0.0002508
inclination: 86.3936°
perigee height: 776 km
apogee height: 779 km
right ascension of ascending node: 295.6971°
argument of perigee: 70.1721°
revolutions per day: 14.34215161
mean anomaly at epoch: 289.9745°
orbit number at epoch: 1720

The dashed part of the orbit path shows where the satellite is in the earth's shadow,  

DLR